User: anonymous   Login
Location: Unspecified
(0.0000°N, 0.0000°E)
Time: 10:46:24
(UTC+00:00)
Language:

Nova 3 - Orbit

View from above orbital plane
View from above orbital plane
View from above satellite
View from above satellite

Ground track
Ground track

The orbit data is extracted from the following two-line orbital elements,

1 15362U 84110A   25133.86444562  .00000065  00000-0  13455-3 0  9996
2 15362  90.1207  78.1092 0031031 192.7038 221.5355 13.23015010958846
Epoch (UTC): 13 May 2025 20:44:48
Eccentricity: 0.0031031
inclination: 90.1207°
perigee height: 1150 km
apogee height: 1196 km
right ascension of ascending node: 78.1092°
argument of perigee: 192.7038°
revolutions per day: 13.23015010
mean anomaly at epoch: 221.5355°
orbit number at epoch: 95884

The dashed part of the orbit path shows where the satellite is in the earth's shadow,  

DLR